User: anonymous   Login
Location: Unspecified
(0.0000°N, 0.0000°E)
Time: 06:18:06
(UTC+00:00)
Language:

DICE 2 - Orbit

View from above orbital plane
View from above orbital plane
View from above satellite
View from above satellite

Ground track
Ground track

The orbit data is extracted from the following two-line orbital elements,

1 37852U 11061C   18116.73171703  .00000953  00000-0  57176-4 0  9997
2 37852 101.7239 155.8604 0167990 230.0491 128.5861 15.05203406354009
Epoch (UTC): 26 April 2018 17:33:40
Eccentricity: 0.0167990
inclination: 101.7239°
perigee height: 434 km
apogee height: 667 km
right ascension of ascending node: 155.8604°
argument of perigee: 230.0491°
revolutions per day: 15.05203406
mean anomaly at epoch: 128.5861°
orbit number at epoch: 35400

The dashed part of the orbit path shows where the satellite is in the earth's shadow,  

DLR